OneWeb SL0598

operational
NORAD ID: 55154 Int'l Des: 2023-004 Owner: ONEWEBN Country: UK Constellation: oneweb
LEOCIRCULARPOLARONEWEB_TYPE

OneWeb SL0598について

説明を読み込み中...

リアルタイム位置

3D地球を読み込み中...

次回通過

高度履歴

Altitude vs Time

uPlot chart will show altitude changes over time

軌道要素

1 55154U 23004Q 25305.56699767 .00000350 00000-0 95118-3 0 9994
2 55154 87.8845 66.4056 0002281 99.2776 260.8610 13.11415440136065
Epoch: Nov 1, 2025 • Age: 19 hours

現在のステータス

高度 1220.3 km
速度 7.25 km/s
衛星直下点 28.91°N, 72.9°E
打ち上げ日 Jan 10, 2023
運用期間 2.8 years
タイプ internet

技術仕様

分類 Payload
質量 148.00 kg
乾燥質量 140.00 kg
総質量 148.00 kg
長さ 1.30 m
直径 1.00 m
スパン 5.00 m
形状 Trapezoid+2 pan
製造者 ONEWUS
バスタイプ ARROW
フェーズステータス In Orbit
所有者/国 ONEWEBN/UK

大規模コンステレーション

Loading constellations...